Denison, IA

3:12 AM CDT on May 26, 2017 (GMT -0500)
Denison Municipal

Weather History for KDNS - October, 2012

Change the Weather History Date:

Wednesday, October 3, 2012

  Actual Average Record
Temperature  
Mean Temperature 56 °F -  
Max Temperature 78 °F 67 °F 91 °F (1997)
Min Temperature 35 °F 45 °F 32 °F (1996)
Degree Days  
Heating Degree Days 8    
Growing Degree Days 6 (Base 50)    
Moisture  
Dew Point 34 °F    
Average Humidity 49    
Maximum Humidity 93    
Minimum Humidity 18    
Precipitation  
Precipitation 0.00 in - - ()
Sea Level Pressure  
Sea Level Pressure 29.87 in    
Wind  
Wind Speed 5 mph (South)    
Max Wind Speed 20 mph    
Max Gust Speed 28 mph    
Visibility 7 miles    
Events      
Averages and records for this station are not official NWS values.
T = Trace of Precipitation, MM = Missing Value Source: NWS Daily Summary

Daily Weather History Graph

Daily Weather History Graph

Search for Another Location

Airport or City:

Trip Planner

Search our weather history database for the weather conditions in past years. The results will help you decide how hot, cold, wet, or windy it might be!

Date:

Astronomy

Oct. 03, 2012 Rise Set
Actual Time 7:21 AM CDT 6:58 PM CDT
Civil Twilight 6:53 AM CDT 7:26 PM CDT
Nautical Twilight 6:20 AM CDT 7:58 PM CDT
Astronomical Twilight 5:48 AM CDT 8:31 PM CDT
Moon 8:47 PM CDT (10/3) 10:49 AM CDT (10/3)
Length of Visible Light 12h 33m
Length of Day
11h 37m
Waning Gibbous, 88% of the Moon is Illuminated
Oct 3
Waning Gibbous
Oct 8
Last Quarter
Oct 15
New
Oct 21
First Quarter
Oct 29
Full

Hourly Weather History & Observations

Time (CDT) Temp. Windchill Dew Point Humidity Pressure Visibility Wind Dir Wind Speed Gust Speed Precip Events Conditions
12:15 AM 41.0 °F - 33.8 °F 76% 29.90 in 3.0 mi Calm Calm - N/A   Haze
12:35 AM 41.0 °F - 33.8 °F 76% 29.91 in 4.0 mi Calm Calm - N/A   Haze
12:55 AM 41.0 °F - 33.8 °F 76% 29.90 in 3.0 mi Calm Calm - N/A   Haze
1:15 AM 41.0 °F - 33.8 °F 76% 29.90 in 3.0 mi Calm Calm - N/A   Haze
1:35 AM 39.2 °F - 33.8 °F 81% 29.90 in 3.0 mi Calm Calm - N/A   Haze
1:55 AM 39.2 °F - 33.8 °F 81% 29.90 in 3.0 mi Calm Calm - N/A   Haze
2:15 AM 39.2 °F - 33.8 °F 81% 29.90 in 2.5 mi Calm Calm - N/A   Haze
2:35 AM 39.2 °F - 33.8 °F 81% 29.90 in 3.0 mi Calm Calm - N/A   Haze
2:55 AM 39.2 °F - 33.8 °F 81% 29.90 in 5.0 mi Calm Calm - N/A   Haze
3:15 AM 39.2 °F - 33.8 °F 81% 29.90 in 2.5 mi Calm Calm - N/A   Haze
3:35 AM 37.4 °F - 33.8 °F 87% 29.90 in 3.0 mi Calm Calm - N/A   Haze
3:55 AM 37.4 °F - 33.8 °F 87% 29.90 in 3.0 mi Calm Calm - N/A   Haze
4:15 AM 37.4 °F - 32.0 °F 81% 29.90 in 3.0 mi Calm Calm - N/A   Haze
4:35 AM 37.4 °F 33.8 °F 33.8 °F 87% 29.91 in 5.0 mi NNE 4.6 mph - N/A   Clear
4:55 AM 37.4 °F - 33.8 °F 87% 29.91 in 3.0 mi Calm Calm - N/A   Clear
5:15 AM 37.4 °F - 33.8 °F 87% 29.91 in 3.0 mi Calm Calm - N/A   Haze
5:35 AM 35.6 °F - 32.0 °F 87% 29.91 in 4.0 mi Calm Calm - N/A   Clear
5:55 AM 35.6 °F - 33.8 °F 93% 29.91 in 3.0 mi Calm Calm - N/A   Clear
6:15 AM 35.6 °F - 32.0 °F 87% 29.91 in 6.0 mi Calm Calm - N/A   Clear
6:35 AM 35.6 °F - 32.0 °F 87% 29.92 in 3.0 mi Calm Calm - N/A   Clear
6:55 AM 37.4 °F - 33.8 °F 87% 29.92 in 3.0 mi Calm Calm - N/A   Clear
7:15 AM 35.6 °F - 32.0 °F 87% 29.91 in 5.0 mi Calm Calm - N/A   Clear
7:35 AM 35.6 °F - 32.0 °F 87% 29.91 in 3.0 mi Calm Calm - N/A   Clear
7:55 AM 37.4 °F - 33.8 °F 87% 29.91 in 2.5 mi Calm Calm - N/A   Clear
8:15 AM 39.2 °F - 35.6 °F 87% 29.92 in 4.0 mi Calm Calm - N/A   Clear
8:35 AM 42.8 °F - 39.2 °F 87% 29.91 in 2.5 mi Calm Calm - N/A   Haze
8:55 AM 46.4 °F - 39.2 °F 76% 29.92 in 5.0 mi Calm Calm - N/A   Haze
9:15 AM 53.6 °F - 41.0 °F 62% 29.91 in 2.0 mi Calm Calm - N/A   Haze
9:35 AM 57.2 °F - 39.2 °F 51% 29.91 in 2.0 mi Variable 3.5 mph - N/A   Haze
9:55 AM 60.8 °F - 37.4 °F 42% 29.91 in 6.0 mi South 8.1 mph - N/A   Haze
10:15 AM 64.4 °F - 37.4 °F 37% 29.91 in 8.0 mi South 9.2 mph - N/A   Clear
10:35 AM 66.2 °F - 35.6 °F 32% 29.91 in 7.0 mi South 9.2 mph 16.1 mph N/A   Clear
10:55 AM 68.0 °F - 35.6 °F 30% 29.90 in 9.0 mi South 12.7 mph 19.6 mph N/A   Clear
11:15 AM 68.0 °F - 35.6 °F 30% 29.89 in 9.0 mi SSE 17.3 mph 24.2 mph N/A   Clear
11:35 AM 69.8 °F - 35.6 °F 28% 29.89 in 9.0 mi SSE 15.0 mph - N/A   Clear
11:55 AM 71.6 °F - 35.6 °F 27% 29.88 in 10.0 mi South 15.0 mph 20.7 mph N/A   Clear
12:15 PM 71.6 °F - 35.6 °F 27% 29.87 in 9.0 mi South 13.8 mph 24.2 mph N/A   Clear
12:35 PM 73.4 °F - 33.8 °F 23% 29.87 in 10.0 mi SSW 17.3 mph 25.3 mph N/A   Clear
12:55 PM 75.2 °F - 33.8 °F 22% 29.86 in 10.0 mi South 17.3 mph 24.2 mph N/A   Clear
1:15 PM 75.2 °F - 33.8 °F 22% 29.86 in 10.0 mi South 15.0 mph 23.0 mph N/A   Clear
1:35 PM 77.0 °F - 33.8 °F 21% 29.84 in 10.0 mi South 15.0 mph 23.0 mph N/A   Clear
1:55 PM 77.0 °F - 33.8 °F 21% 29.83 in 9.0 mi South 16.1 mph 27.6 mph N/A   Clear
2:15 PM 77.0 °F - 33.8 °F 21% 29.82 in 10.0 mi South 15.0 mph 25.3 mph N/A   Clear
2:35 PM 77.0 °F - 33.8 °F 21% 29.82 in 10.0 mi South 19.6 mph 27.6 mph N/A   Clear
2:55 PM 78.8 °F - 33.8 °F 20% 29.81 in 10.0 mi South 17.3 mph 27.6 mph N/A   Clear
3:15 PM 78.8 °F - 32.0 °F 18% 29.81 in 10.0 mi South 15.0 mph 25.3 mph N/A   Clear
3:35 PM 78.8 °F - 32.0 °F 18% 29.81 in 10.0 mi South 13.8 mph 24.2 mph N/A   Clear
3:55 PM 78.8 °F - 32.0 °F 18% 29.81 in 10.0 mi South 16.1 mph 27.6 mph N/A   Clear
4:15 PM 78.8 °F - 32.0 °F 18% 29.80 in 10.0 mi South 17.3 mph 24.2 mph N/A   Clear
4:35 PM 77.0 °F - 32.0 °F 19% 29.81 in 10.0 mi South 13.8 mph 26.5 mph N/A   Clear
4:55 PM 77.0 °F - 33.8 °F 21% 29.80 in 10.0 mi South 19.6 mph 27.6 mph N/A   Clear
5:15 PM 77.0 °F - 33.8 °F 21% 29.80 in 10.0 mi South 15.0 mph 27.6 mph N/A   Clear
5:35 PM 77.0 °F - 32.0 °F 19% 29.80 in 9.0 mi South 16.1 mph 27.6 mph N/A   Clear
5:55 PM 75.2 °F - 33.8 °F 22% 29.81 in 10.0 mi South 15.0 mph 23.0 mph N/A   Clear
6:15 PM 75.2 °F - 33.8 °F 22% 29.81 in 10.0 mi South 13.8 mph 21.9 mph N/A   Clear
6:35 PM 73.4 °F - 33.8 °F 23% 29.82 in 10.0 mi South 11.5 mph 17.3 mph N/A   Clear
6:55 PM 71.6 °F - 32.0 °F 23% 29.82 in 10.0 mi South 11.5 mph - N/A   Clear
7:15 PM 69.8 °F - 33.8 °F 27% 29.83 in - South 8.1 mph - N/A   Clear
7:35 PM 69.8 °F - 33.8 °F 27% 29.84 in 10.0 mi South 11.5 mph - N/A   Clear
7:55 PM 68.0 °F - 33.8 °F 28% 29.83 in 10.0 mi SSE 11.5 mph - N/A   Clear
8:15 PM 68.0 °F - 33.8 °F 28% 29.84 in 10.0 mi SSE 12.7 mph - N/A   Clear
8:35 PM 66.2 °F - 33.8 °F 30% 29.84 in 10.0 mi SSE 12.7 mph - N/A   Clear
8:55 PM 66.2 °F - 33.8 °F 30% 29.84 in 10.0 mi South 13.8 mph - N/A   Clear
9:15 PM 66.2 °F - 33.8 °F 30% 29.85 in 10.0 mi South 13.8 mph 19.6 mph N/A   Clear
9:35 PM 66.2 °F - 33.8 °F 30% 29.86 in 10.0 mi South 12.7 mph - N/A   Clear
10:15 PM 64.4 °F - 33.8 °F 32% 29.87 in 10.0 mi South 12.7 mph 19.6 mph N/A   Clear
10:35 PM 64.4 °F - 35.6 °F 34% 29.87 in 10.0 mi South 12.7 mph 21.9 mph N/A   Clear
10:55 PM 64.4 °F - 35.6 °F 34% 29.88 in 10.0 mi South 12.7 mph 20.7 mph N/A   Clear
11:15 PM 64.4 °F - 35.6 °F 34% 29.88 in 10.0 mi South 11.5 mph 20.7 mph N/A   Clear
11:35 PM 64.4 °F - 37.4 °F 37% 29.88 in 10.0 mi SSW 15.0 mph 20.7 mph N/A   Clear
11:55 PM 62.6 °F - 37.4 °F 39% 29.91 in 10.0 mi West 12.7 mph - N/A   Partly Cloudy